Starlink 11075

operational
NORAD ID: 58706 Int'l Des: 2024-002 Owner: SPXS Country: US Constellation: starlink
LEOCIRCULAR

关于 Starlink 11075

正在加载描述...

实时位置

正在加载3D地球...

即将过境

高度历史

Altitude vs Time

uPlot chart will show altitude changes over time

两行轨道根数

1 58706U 24002B 25305.37699800 -.00000358 00000-0 19040-5 0 9997
2 58706 53.1589 186.6147 0001413 104.7291 255.3884 15.69704050106284
Epoch: Nov 1, 2025 • Age: 13 hours

当前状态

高度 377.2 km
速度 7.68 km/s
星下点 -48.68°S, 45.41°E
发射日期 Jan 3, 2024
运行时间 1.8 years
类型 internet

技术详情

分类 Payload
质量 960.00 kg
干质量 910.00 kg
总质量 960.00 kg
长度 0.30 m
直径 4.10 m
跨度 29.00 m
形状 Box + pan
制造商 SPXS
平台类型 Starlink V2MD
阶段状态 In Orbit
所有者/国家 SPXS/US

大型星座

Loading constellations...